[[{"header":{"parameterUnit":"m.s-1","parameterCategory":2,"la1":30.2991,"la2":30.254,"lo1":-89.0895,"lo2":-89.0444,"dy":0.0017,"dx":0.0017,"nx":28,"ny":28,"refTime":"2024-06-23T09:00:00:Z","depth":"0","parameterNumber":2,"parameterNumberName":"U-component_of_CURRENTS"},"data":[0,0,0,0,0,0,0,0,0,0,0,0,0,0,0,0,0,0,0,0,0,0,0,0,0,0,0,0,0,0,0,0,0,0,0,0,0,0,0,0,0,0,0,0,0,0,0,0,0,0,0,0,0,0,0,0,0,0,0.4086,0.4087,0,0.414,0.414,0.414,0.4149,0.4149,0.4149,0.4149,0.4243,0.4245,0.4247,0,0,0,0,0,0,0,0,0,0,0,0,0,0.3955,0.3957,0.4086,0.4087,0.4089,0.414,0.414,0.414,0.4149,0.4149,0.4149,0.4149,0.4242,0.4245,0.4248,0,0,0,0,0,0,0,0,0,0,0,0,0,0.4005,0.3958,0.4086,0.4104,0.4106,0.414,0.414,0.414,0.4149,0.4149,0.4149,0.4149,0.4241,0.4244,0.4248,0.4267,0,0,0.4259,0.4261,0,0,0,0,0,0,0,0,0.4002,0.4009,0.41,0.4103,0.4106,0.4143,0.4129,0.4187,0.4149,0.4126,0.4149,0.4149,0.4217,0.4223,0.4223,0.4272,0.4276,0.4259,0.4262,0.4263,0.4264,0,0,0,0,0,0,0,0.3999,0.4007,0.4101,0.4101,0.4105,0.4097,0.4104,0.4139,0.4166,0.4128,0.413,0.4146,0.4218,0.4219,0.4226,0.4277,0.4259,0.4262,0.4265,0.4266,0.439,0.4391,0,0,0,0,0,0,0.4007,0.4004,0.41,0.4104,0.406,0.41,0.4107,0.4126,0.4165,0.4172,0.4146,0.4147,0.4213,0.4221,0.4229,0.4335,0.4263,0.4266,0.4269,0.4389,0.439,0.4392,0,0,0,0,0,0,0.4004,0.4015,0.4098,0.4059,0.407,0.4103,0.4123,0.4127,0.4132,0.4179,0.4186,0.4149,0.4214,0.4224,0.4263,0.4336,0.4268,0.4271,0.4388,0.439,0.4391,0.4497,0,0,0,0,0,0,0.4,0.4013,0.4024,0.406,0.4073,0.4128,0.4124,0.4128,0.4145,0.4146,0.4184,0.4192,0.4215,0.4258,0.4267,0.434,0.4274,0.4386,0.4389,0.4391,0.4492,0.4502,0.451,0,0,0,0,0,0.3995,0.4019,0.4024,0.4036,0.4088,0.4129,0.4134,0.4153,0.4145,0.4155,0.4175,0.4191,0.4278,0.4261,0.4272,0.4348,0.4385,0.4388,0.439,0.4488,0.45,0.451,0,0,0,0,0,0,0.3961,0.4024,0.403,0.4069,0.4099,0.4133,0.415,0.4153,0.4172,0.4176,0.42,0.421,0.428,0.4279,0.426,0.4384,0.4338,0.4342,0.4408,0.442,0.4429,0.4465,0.4277,0,0,0,0,0,0.396,0.3999,0.4044,0.4073,0.4092,0.4115,0.4131,0.4146,0.4173,0.4181,0.4212,0.4245,0.4298,0.4327,0.4364,0.4424,0.4448,0.4477,0.4486,0.4495,0.4528,0.461,0.4631,0.44,0.44,0.44,0,0,0.3955,0.3995,0.4015,0.4069,0.4093,0.414,0.4124,0.416,0.4208,0.4191,0.4258,0.428,0.4316,0.4395,0.4426,0.4406,0.4569,0.4498,0.4505,0.4534,0.4615,0.4638,0.4658,0.4402,0.4402,0.4401,0,0,0.3968,0.4,0.4035,0.4074,0.4125,0.4153,0.4164,0.4206,0.4233,0.4292,0.4304,0.4363,0.4421,0.4481,0.4514,0.4591,0.4613,0.4595,0.4687,0.4766,0.4787,0.4805,0.4856,0.4879,0.4604,0.4605,0.4605,0,0.3953,0.4014,0.4047,0.4097,0.415,0.4163,0.4221,0.4253,0.4303,0.4354,0.4329,0.4457,0.448,0.4607,0.4636,0.4623,0.4652,0.4647,0.4783,0.4802,0.4819,0.4867,0.489,0.461,0.4609,0.4609,0.4608,0,0.3996,0.4051,0.4079,0.416,0.4216,0.4266,0.4335,0.4386,0.442,0.4463,0.4578,0.4605,0.469,0.4706,0.4702,0.4845,0.4819,0.4785,0.4764,0.485,0.4893,0.4916,0.4618,0.4616,0.4614,0.4613,0,0,0.3948,0.4082,0.4093,0.4159,0.4262,0.4317,0.4421,0.453,0.461,0.4661,0.4777,0.4864,0.4875,0.4911,0.4916,0.4983,0.5121,0.4943,0.4945,0.5011,0.5287,0.5067,0.507,0.5113,0.5118,0.5121,0.5265,0,0.3968,0.4082,0.4153,0.4277,0.435,0.444,0.4543,0.4649,0.4725,0.4832,0.4896,0.4988,0.4953,0.4997,0.507,0.5105,0.5187,0.5085,0.518,0.5183,0.4991,0.5091,0.4769,0.4852,0.5287,0.5291,0.5293,0,0.3983,0.4073,0.4197,0.4376,0.4417,0.4496,0.4691,0.4785,0.494,0.4999,0.5107,0.5138,0.5265,0.5198,0.5351,0.5285,0.5314,0.5329,0.5334,0.5114,0.5005,0.4836,0.4876,0.4772,0.5328,0.5325,0.5323,0,0.3953,0.4107,0.4218,0.4277,0.4469,0.456,0.4666,0.4837,0.4937,0.5102,0.5175,0.5311,0.5379,0.5453,0.5478,0.5435,0.5617,0.5556,0.5397,0.5381,0.5118,0.5068,0.5081,0.5693,0.5692,0.5692,0.5692,0,0.3964,0.4051,0.4211,0.428,0.4435,0.4567,0.4732,0.4858,0.502,0.5129,0.5247,0.5334,0.5448,0.5541,0.5555,0.5537,0.5688,0.5446,0.5417,0.5137,0.509,0.4991,0.4973,0.5697,0.5696,0.5695,0.5694,0,0.3934,0.4022,0.4171,0.437,0.4429,0.4552,0.4757,0.4864,0.5016,0.516,0.5213,0.5394,0.5491,0.5576,0.5696,0.5607,0.5451,0.5589,0.5232,0.5155,0.4811,0.4809,0.4648,0.4536,0.542,0.5416,0.5412,0,0.393,0.4001,0.4222,0.4292,0.4383,0.455,0.4657,0.4849,0.4947,0.5163,0.522,0.5376,0.5407,0.5497,0.5401,0.5382,0.5327,0.5082,0.4927,0.4773,0.4755,0.4621,0.4532,0.4638,0.4628,0.462,0.4614,0,0.3938,0.4017,0.414,0.4285,0.4402,0.4521,0.4671,0.474,0.4936,0.5015,0.5092,0.5124,0.518,0.4983,0.4968,0.492,0.4786,0.4909,0.4869,0.4243,0.3986,0.3867,0.457,0.4542,0.455,0.4555,0.4559,0.4562,0.393,0.4003,0.4135,0.4256,0.4371,0.4419,0.4411,0.4533,0.4603,0.4595,0.4805,0.4687,0.4639,0.4515,0.4457,0.4153,0.4269,0.3987,0.4036,0.3945,0.3698,0.4217,0.4065,0.4069,0.4073,0.4076,0.4079,0,0.3864,0.3936,0.4071,0.4166,0.4187,0.4282,0.4342,0.4248,0.4174,0.4242,0.4194,0.401,0.3808,0.3771,0.3506,0.3317,0.3197,0.3266,0.3055,0.3047,0.3607,0.3429,0.2985,0.2985,0.2985,0.2985,0.2985,0.2985,0.3821,0.387,0.3932,0.3916,0.3951,0.3836,0.3781,0.3676,0.3647,0.3422,0.3249,0.3233,0.3308,0.3149,0.2894,0.282,0.2694,0.2469,0.2647,0.3085,0.3157,0.3226,0.3057,0.2541,0.2541,0.1876,0.1871,0.1868]},{"header":{"parameterUnit":"m.s-1","parameterCategory":2,"la1":30.2991,"la2":30.254,"lo1":-89.0895,"lo2":-89.0444,"dy":0.0017,"dx":0.0017,"nx":28,"ny":28,"refTime":"2024-06-23T09:00:00:Z","depth":"0","parameterNumber":3,"parameterNumberName":"V-component_of_CURRENTS"},"data":[0,0,0,0,0,0,0,0,0,0,0,0,0,0,0,0,0,0,0,0,0,0,0,0,0,0,0,0,0,0,0,0,0,0,0,0,0,0,0,0,0,0,0,0,0,0,0,0,0,0,0,0,0,0,0,0,0,0,0.0335,0.0335,0,0.0299,0.0299,0.0298,0.026,0.026,0.0259,0.0259,0.0179,0.0177,0.0175,0,0,0,0,0,0,0,0,0,0,0,0,0,0.0331,0.0331,0.0335,0.0335,0.0335,0.0299,0.0299,0.0298,0.026,0.026,0.0259,0.0259,0.0179,0.0177,0.0175,0,0,0,0,0,0,0,0,0,0,0,0,0,0.0316,0.0331,0.0335,0.0313,0.0311,0.0299,0.0299,0.0298,0.026,0.026,0.0259,0.0259,0.018,0.0178,0.0175,0.017,0,0,0.0167,0.0166,0,0,0,0,0,0,0,0,0.0317,0.0316,0.0316,0.0314,0.0312,0.0285,0.0268,0.0253,0.026,0.0278,0.0259,0.0258,0.0212,0.0206,0.0199,0.0166,0.0163,0.0167,0.0165,0.0164,0.0163,0,0,0,0,0,0,0,0.0318,0.0317,0.0319,0.0316,0.0313,0.0291,0.0288,0.0265,0.0246,0.0276,0.0274,0.0272,0.021,0.0202,0.0197,0.0162,0.0167,0.0164,0.0163,0.0162,0.0138,0.0139,0,0,0,0,0,0,0.0329,0.0318,0.0321,0.0318,0.0315,0.0291,0.0288,0.0293,0.0247,0.0241,0.0273,0.0271,0.0207,0.02,0.0194,0.0204,0.0164,0.0161,0.016,0.0137,0.0138,0.0139,0,0,0,0,0,0,0.0329,0.0329,0.0322,0.0318,0.0316,0.0293,0.0297,0.0292,0.0289,0.0246,0.0238,0.0275,0.0206,0.0198,0.0184,0.02,0.016,0.0158,0.0136,0.0137,0.0139,0.0211,0,0,0,0,0,0,0.0329,0.033,0.0338,0.0319,0.0317,0.0328,0.0298,0.0292,0.0289,0.0286,0.0245,0.0236,0.0205,0.0188,0.0181,0.0195,0.0156,0.0135,0.0137,0.0138,0.0208,0.0215,0.0222,0,0,0,0,0,0.0329,0.0349,0.0338,0.0339,0.0328,0.0329,0.0326,0.0305,0.029,0.0297,0.0269,0.0238,0.0195,0.0187,0.0179,0.0192,0.0134,0.0136,0.0138,0.0205,0.0214,0.0221,0,0,0,0,0,0,0.0349,0.0346,0.0335,0.0351,0.0345,0.0323,0.0331,0.0313,0.0297,0.0291,0.0248,0.0238,0.0233,0.0205,0.0197,0.0192,0.016,0.0161,0.0214,0.0222,0.0229,0.0265,0.0153,0,0,0,0,0,0.0358,0.0374,0.0361,0.0375,0.0375,0.0353,0.0351,0.0336,0.0318,0.031,0.0283,0.0255,0.0235,0.0223,0.0201,0.0197,0.0204,0.0201,0.0208,0.0214,0.0239,0.028,0.0294,0.0146,0.0146,0.0146,0,0,0.0368,0.037,0.0377,0.0381,0.0373,0.038,0.0351,0.0354,0.0356,0.0304,0.0303,0.0277,0.024,0.0237,0.0232,0.0215,0.0255,0.0217,0.0222,0.0244,0.0284,0.0299,0.0312,0.0148,0.0148,0.0147,0,0,0.0404,0.0401,0.0427,0.0425,0.0422,0.0407,0.0412,0.0396,0.0387,0.0383,0.0348,0.0344,0.0305,0.0294,0.0279,0.0313,0.0292,0.0294,0.0356,0.0396,0.0409,0.0421,0.0432,0.0445,0.0297,0.0297,0.0297,0,0.0414,0.044,0.0433,0.0454,0.0455,0.0423,0.0441,0.043,0.041,0.0423,0.0393,0.0382,0.034,0.0357,0.0359,0.0331,0.0341,0.0326,0.0407,0.0419,0.043,0.0439,0.0452,0.0301,0.03,0.03,0.0299,0,0.0465,0.0481,0.0498,0.051,0.0513,0.0522,0.0505,0.051,0.0493,0.0491,0.0511,0.0471,0.0477,0.045,0.0406,0.0458,0.0435,0.0413,0.0391,0.045,0.0455,0.0467,0.0306,0.0305,0.0304,0.0303,0,0,0.0497,0.0526,0.0531,0.0552,0.0539,0.0556,0.0562,0.0577,0.062,0.0593,0.0656,0.0605,0.0608,0.0593,0.0549,0.0564,0.0622,0.052,0.052,0.054,0.0698,0.0624,0.0629,0.0617,0.062,0.0622,0.0666,0,0.0534,0.0589,0.0585,0.0629,0.0653,0.0632,0.0654,0.0667,0.0676,0.0732,0.0709,0.0747,0.0654,0.0674,0.0675,0.0649,0.066,0.0612,0.0632,0.0632,0.0567,0.0643,0.0623,0.0656,0.0677,0.0679,0.068,0,0.0581,0.0613,0.0661,0.0708,0.072,0.0738,0.0791,0.0815,0.0867,0.0883,0.0917,0.0912,0.0933,0.0853,0.0849,0.0825,0.0772,0.0736,0.0737,0.0658,0.0582,0.0603,0.0677,0.0577,0.0698,0.0697,0.0696,0,0.0624,0.067,0.0713,0.0722,0.0764,0.0792,0.0821,0.0869,0.0935,0.1006,0.108,0.1082,0.1132,0.107,0.0978,0.0931,0.0978,0.0907,0.0788,0.0781,0.0764,0.0751,0.0756,0.0918,0.0918,0.0918,0.0918,0,0.0667,0.0711,0.0742,0.0772,0.0853,0.0858,0.0963,0.0995,0.1088,0.1221,0.1182,0.1291,0.1196,0.12,0.1069,0.0978,0.1054,0.0827,0.0804,0.0783,0.0772,0.0681,0.0594,0.0919,0.0919,0.0919,0.0919,0,0.0722,0.073,0.0802,0.0854,0.0878,0.0948,0.1062,0.1166,0.1219,0.1398,0.144,0.1491,0.1495,0.1368,0.1295,0.1123,0.0942,0.096,0.0922,0.0893,0.064,0.0556,0.0513,0.0466,0.0837,0.0836,0.0835,0,0.0758,0.0793,0.0877,0.0941,0.0971,0.1068,0.1162,0.123,0.1357,0.1535,0.1654,0.1701,0.176,0.1593,0.1321,0.1095,0.0957,0.0891,0.0781,0.0651,0.0543,0.0482,0.0441,0.0785,0.0784,0.0783,0.0782,0,0.0837,0.0862,0.0934,0.1059,0.1157,0.1279,0.1415,0.1525,0.1656,0.1799,0.199,0.2043,0.188,0.1655,0.131,0.1128,0.0791,0.0855,0.0763,0.0544,0.0442,0.0377,0.0707,0.0772,0.0773,0.0773,0.0774,0.0774,0.0913,0.098,0.1074,0.1197,0.1324,0.1487,0.16,0.1769,0.197,0.2184,0.2221,0.2299,0.1943,0.1474,0.1226,0.0733,0.0723,0.0555,0.0478,0.0439,0.0355,0.0636,0.0638,0.0638,0.0638,0.0638,0.0639,0,0.1002,0.108,0.121,0.1365,0.1526,0.156,0.1777,0.1901,0.2142,0.2322,0.245,0.2288,0.1852,0.1399,0.0721,0.041,0.0318,0.0255,0.0192,0.0178,0.0484,0.0442,0.0351,0.0352,0.0352,0.0352,0.0352,0.0352,0.1059,0.1185,0.1244,0.15,0.1624,0.1811,0.1929,0.2118,0.2263,0.2435,0.2449,0.2437,0.2095,0.0968,0.0281,0.0129,-0.0036,-0.0118,-0.0174,0.0045,0.0068,0.009,0.0035,-0.014,-0.014,-0.0428,-0.0431,-0.0434]}],[{"header":{"parameterUnit":"m.s-1","parameterCategory":2,"la1":30.2991,"la2":30.254,"lo1":-89.0895,"lo2":-89.0444,"dy":0.0017,"dx":0.0017,"nx":28,"ny":28,"refTime":"2024-06-23T09:00:00:Z","depth":"2","parameterNumber":2,"parameterNumberName":"U-component_of_CURRENTS"},"data":[0,0,0,0,0,0,0,0,0,0,0,0,0,0,0,0,0,0,0,0,0,0,0,0,0,0,0,0,0,0,0,0,0,0,0,0,0,0,0,0,0,0,0,0,0,0,0,0,0,0,0,0,0,0,0,0,0,0,0.3229,0.323,0,0.3274,0.3274,0.3274,0.3308,0.3309,0.3309,0.331,0.3373,0.3374,0.3375,0,0,0,0,0,0,0,0,0,0,0,0,0,0.318,0.318,0.3229,0.323,0.3232,0.3274,0.3274,0.3274,0.3307,0.3309,0.331,0.3311,0.3373,0.3374,0.3375,0,0,0,0,0,0,0,0,0,0,0,0,0,0.3204,0.3181,0.3229,0.3259,0.3262,0.3274,0.3274,0.3274,0.3307,0.3309,0.331,0.3311,0.3373,0.3374,0.3375,0.3354,0,0,0.3379,0.3379,0,0,0,0,0,0,0,0,0.3203,0.3205,0.3253,0.3257,0.3261,0.3293,0.328,0.3304,0.3307,0.3283,0.331,0.3312,0.3351,0.3354,0.335,0.3357,0.336,0.3379,0.338,0.338,0.338,0,0,0,0,0,0,0,0.3201,0.3204,0.324,0.3254,0.3259,0.3272,0.3276,0.3284,0.3304,0.3285,0.3289,0.3305,0.3353,0.3348,0.3352,0.3361,0.3379,0.338,0.3381,0.3381,0.3465,0.3466,0,0,0,0,0,0,0.3207,0.3202,0.3239,0.3242,0.3242,0.3273,0.3277,0.3275,0.3303,0.3311,0.3303,0.3306,0.3346,0.335,0.3354,0.344,0.338,0.3381,0.3382,0.3464,0.3465,0.3467,0,0,0,0,0,0,0.3206,0.3209,0.3237,0.323,0.3235,0.3273,0.327,0.3276,0.3303,0.3318,0.3325,0.3331,0.3347,0.3352,0.339,0.3439,0.3382,0.3383,0.3462,0.3464,0.3466,0.3543,0,0,0,0,0,0,0.3204,0.3208,0.322,0.3229,0.3236,0.327,0.327,0.3276,0.3312,0.3317,0.3343,0.3349,0.3348,0.3388,0.3391,0.344,0.3384,0.346,0.3463,0.3465,0.3539,0.3548,0.3556,0,0,0,0,0,0.3201,0.3209,0.3219,0.3225,0.3246,0.3271,0.3276,0.3302,0.3313,0.333,0.3349,0.3349,0.3409,0.339,0.3393,0.3444,0.3458,0.3462,0.3465,0.3535,0.3546,0.3556,0,0,0,0,0,0,0.3193,0.3214,0.3225,0.3239,0.3268,0.328,0.3298,0.3317,0.3342,0.3355,0.336,0.3367,0.3434,0.3415,0.3394,0.3475,0.3437,0.3441,0.3489,0.35,0.3508,0.3506,0.3385,0,0,0,0,0,0.3197,0.3208,0.3234,0.3248,0.326,0.3283,0.3301,0.3326,0.3347,0.336,0.3377,0.34,0.3442,0.3452,0.3483,0.3505,0.3531,0.3542,0.355,0.3557,0.3558,0.3677,0.3698,0.3478,0.3478,0.3478,0,0,0.3204,0.3213,0.3224,0.3249,0.3264,0.3289,0.3296,0.3334,0.3377,0.3362,0.3415,0.3442,0.3461,0.351,0.3535,0.3501,0.3627,0.3562,0.3568,0.3564,0.3683,0.3705,0.3724,0.348,0.348,0.348,0,0,0.3212,0.3223,0.3236,0.3258,0.3299,0.3313,0.3333,0.3365,0.3404,0.346,0.3473,0.352,0.3561,0.3582,0.36,0.3665,0.3687,0.368,0.3701,0.3818,0.3838,0.3855,0.389,0.3911,0.3662,0.3662,0.3662,0,0.3225,0.3226,0.3249,0.3266,0.3302,0.3327,0.3367,0.3397,0.3446,0.3475,0.3496,0.3604,0.3603,0.3682,0.3687,0.3688,0.3733,0.3663,0.3832,0.385,0.3867,0.3899,0.3921,0.3666,0.3665,0.3665,0.3665,0,0.3235,0.3247,0.3253,0.3283,0.3339,0.3362,0.3428,0.3465,0.3519,0.3549,0.3669,0.3707,0.3781,0.3777,0.3741,0.3852,0.3837,0.3852,0.3811,0.3894,0.3921,0.3943,0.3672,0.367,0.3669,0.3668,0,0,0.3222,0.3253,0.3254,0.3307,0.3351,0.3419,0.347,0.3534,0.3592,0.3669,0.3772,0.383,0.3879,0.3901,0.3911,0.3948,0.4068,0.393,0.3934,0.397,0.4289,0.4066,0.4067,0.4135,0.4139,0.4143,0.4251,0,0.3216,0.3266,0.3283,0.3371,0.3422,0.347,0.3534,0.3613,0.3672,0.3759,0.384,0.3928,0.393,0.3979,0.4055,0.4083,0.4132,0.4034,0.4196,0.4199,0.3999,0.4088,0.3764,0.3815,0.4271,0.4275,0.4277,0,0.3207,0.3258,0.3329,0.3463,0.3493,0.3551,0.3691,0.3747,0.3825,0.3897,0.4013,0.4053,0.4159,0.4144,0.4325,0.4276,0.4289,0.4284,0.4291,0.407,0.4016,0.381,0.3836,0.4312,0.4309,0.4307,0.4304,0,0.322,0.3303,0.3377,0.3411,0.3539,0.3609,0.3683,0.3774,0.3859,0.3962,0.4056,0.4202,0.4336,0.4412,0.4428,0.4399,0.4582,0.4562,0.4373,0.4356,0.4098,0.4049,0.4674,0.4674,0.4674,0.4673,0.4673,0,0.3195,0.3271,0.3398,0.3432,0.3567,0.3678,0.379,0.3862,0.4001,0.4092,0.4158,0.4269,0.4415,0.4513,0.45,0.4517,0.4693,0.4385,0.4386,0.4106,0.4059,0.4503,0.4482,0.4677,0.4676,0.4676,0.4675,0,0.3171,0.3232,0.3351,0.3506,0.3553,0.3675,0.3843,0.3919,0.4065,0.4204,0.4245,0.44,0.4489,0.4572,0.4663,0.4614,0.4599,0.4543,0.4149,0.4098,0.4267,0.4249,0.4358,0.4352,0.4346,0.4341,0.4337,0,0.3155,0.3194,0.3364,0.3436,0.3495,0.3652,0.372,0.3915,0.4018,0.4235,0.4318,0.4428,0.4408,0.4481,0.44,0.4353,0.4494,0.4005,0.386,0.4252,0.4244,0.4234,0.4224,0.3556,0.3546,0.3538,0.3531,0,0.313,0.3181,0.329,0.338,0.35,0.3587,0.3733,0.3816,0.4026,0.413,0.4195,0.4144,0.4213,0.3961,0.3923,0.3848,0.398,0.3828,0.4434,0.365,0.3496,0.3487,0.3504,0.3459,0.3466,0.3471,0.3475,0.3478,0.3125,0.3177,0.3261,0.3365,0.349,0.3483,0.345,0.3585,0.3654,0.3712,0.3879,0.3722,0.3737,0.3427,0.33,0.3237,0.35,0.3345,0.3373,0.3408,0.3261,0.3101,0.296,0.2964,0.2967,0.2971,0.2974,0,0.3077,0.3118,0.3199,0.3304,0.3315,0.3386,0.3426,0.3321,0.3251,0.3338,0.3308,0.2966,0.2759,0.2808,0.2571,0.2513,0.2518,0.2422,0.2433,0.2506,0.2572,0.2383,0.1849,0.1846,0.1842,0.1839,0,0,0.3066,0.3074,0.3089,0.3081,0.3115,0.3014,0.2939,0.2793,0.2784,0.2572,0.2482,0.2634,0.2707,0.2259,0.2187,0.1981,0.223,0.1892,0.2802,0.2892,0.2952,0.3116,0.2908,0,0,0,0,0]},{"header":{"parameterUnit":"m.s-1","parameterCategory":2,"la1":30.2991,"la2":30.254,"lo1":-89.0895,"lo2":-89.0444,"dy":0.0017,"dx":0.0017,"nx":28,"ny":28,"refTime":"2024-06-23T09:00:00:Z","depth":"2","parameterNumber":3,"parameterNumberName":"V-component_of_CURRENTS"},"data":[0,0,0,0,0,0,0,0,0,0,0,0,0,0,0,0,0,0,0,0,0,0,0,0,0,0,0,0,0,0,0,0,0,0,0,0,0,0,0,0,0,0,0,0,0,0,0,0,0,0,0,0,0,0,0,0,0,0,0.0187,0.0187,0,0.0159,0.0158,0.0158,0.0136,0.0136,0.0136,0.0136,0.0072,0.007,0.0069,0,0,0,0,0,0,0,0,0,0,0,0,0,0.0188,0.0188,0.0187,0.0187,0.0187,0.0159,0.0158,0.0158,0.0136,0.0136,0.0136,0.0136,0.0073,0.0071,0.0069,0,0,0,0,0,0,0,0,0,0,0,0,0,0.0175,0.0188,0.0187,0.0174,0.0173,0.0159,0.0158,0.0158,0.0136,0.0136,0.0136,0.0136,0.0073,0.0071,0.0068,0.0053,0,0,0.006,0.0059,0,0,0,0,0,0,0,0,0.0175,0.0174,0.0176,0.0175,0.0174,0.0153,0.0135,0.0121,0.0136,0.0148,0.0136,0.0136,0.0097,0.0093,0.0085,0.005,0.0047,0.006,0.0059,0.0058,0.0057,0,0,0,0,0,0,0,0.0176,0.0175,0.0174,0.0176,0.0175,0.0158,0.0157,0.0132,0.0121,0.0147,0.0146,0.0146,0.0096,0.0087,0.0083,0.0046,0.006,0.0058,0.0056,0.0055,0.0029,0.003,0,0,0,0,0,0,0.0186,0.0176,0.0175,0.0173,0.0177,0.0159,0.0157,0.0158,0.0122,0.0117,0.0146,0.0145,0.0092,0.0086,0.0081,0.0085,0.0058,0.0055,0.0054,0.0028,0.0029,0.003,0,0,0,0,0,0,0.0186,0.0186,0.0176,0.0176,0.0174,0.0159,0.0161,0.0157,0.0155,0.0122,0.0116,0.0148,0.0092,0.0084,0.0072,0.0082,0.0054,0.0052,0.0027,0.0028,0.0029,0.0078,0,0,0,0,0,0,0.0186,0.0187,0.0191,0.0177,0.0174,0.018,0.0161,0.0157,0.0156,0.0154,0.0121,0.0115,0.0091,0.0076,0.007,0.0078,0.005,0.0026,0.0028,0.0029,0.0075,0.0081,0.0085,0,0,0,0,0,0.0187,0.02,0.0192,0.0191,0.0181,0.0181,0.0178,0.0166,0.0156,0.0162,0.014,0.0116,0.0081,0.0075,0.0067,0.0074,0.0025,0.0027,0.0029,0.0073,0.0079,0.0085,0,0,0,0,0,0,0.0203,0.0198,0.0189,0.02,0.0195,0.0179,0.0184,0.0172,0.0158,0.0157,0.0122,0.0114,0.0108,0.0087,0.008,0.0073,0.0051,0.0051,0.0087,0.0093,0.0098,0.0125,0.0048,0,0,0,0,0,0.0209,0.0219,0.0207,0.0217,0.0216,0.0199,0.0197,0.019,0.0176,0.017,0.0147,0.0125,0.0109,0.0098,0.0081,0.0072,0.0069,0.0074,0.008,0.0084,0.0102,0.0127,0.0136,0.0036,0.0036,0.0036,0,0,0.0218,0.0218,0.0223,0.0222,0.0216,0.0222,0.0198,0.0204,0.0206,0.0165,0.0161,0.014,0.0112,0.0106,0.0102,0.0089,0.0104,0.0086,0.009,0.0106,0.013,0.014,0.0149,0.0037,0.0037,0.0037,0,0,0.0249,0.0242,0.0261,0.0259,0.0258,0.0246,0.0251,0.0237,0.0228,0.022,0.0196,0.0192,0.0153,0.0148,0.0135,0.0159,0.0132,0.0144,0.0187,0.0211,0.022,0.0228,0.0209,0.0215,0.0145,0.0145,0.0145,0,0.026,0.028,0.0267,0.0283,0.0282,0.026,0.0273,0.0264,0.0248,0.0256,0.0228,0.0214,0.0179,0.0194,0.0193,0.0172,0.0166,0.0164,0.0219,0.0227,0.0234,0.0213,0.0219,0.0148,0.0147,0.0147,0.0147,0,0.0302,0.0315,0.0328,0.0337,0.0332,0.0345,0.0326,0.0335,0.0316,0.0308,0.0319,0.0282,0.0287,0.0261,0.0223,0.0259,0.023,0.0224,0.0206,0.0247,0.0222,0.0227,0.0151,0.015,0.015,0.0149,0,0,0.0332,0.0354,0.0357,0.0374,0.0361,0.0369,0.0377,0.0389,0.0433,0.0395,0.0445,0.0389,0.0389,0.0377,0.0342,0.0339,0.0355,0.0298,0.0298,0.0282,0.0379,0.0321,0.0321,0.036,0.0362,0.0363,0.0331,0,0.0368,0.0411,0.0403,0.044,0.0455,0.0442,0.0464,0.0471,0.0476,0.0524,0.0489,0.0518,0.0427,0.0447,0.0429,0.0397,0.0376,0.0363,0.034,0.0338,0.0286,0.0328,0.034,0.031,0.0336,0.0337,0.0337,0,0.0409,0.0431,0.0468,0.0508,0.0516,0.0533,0.0583,0.0607,0.0655,0.0667,0.0686,0.0672,0.067,0.0594,0.0545,0.0542,0.0462,0.0411,0.041,0.035,0.0292,0.0279,0.0319,0.0346,0.0345,0.0344,0.0344,0,0.0443,0.0481,0.0514,0.052,0.0556,0.0582,0.0609,0.0655,0.072,0.078,0.0854,0.0824,0.0859,0.0764,0.0637,0.0607,0.0577,0.0532,0.0392,0.0385,0.039,0.0381,0.0492,0.0492,0.0492,0.0492,0.0492,0,0.0487,0.0522,0.0539,0.0564,0.0637,0.0631,0.0737,0.0774,0.0865,0.0991,0.0946,0.1034,0.091,0.0871,0.071,0.0574,0.0637,0.0414,0.039,0.0401,0.0394,0.0425,0.0418,0.0491,0.0491,0.0491,0.0492,0,0.053,0.0542,0.0598,0.0637,0.066,0.0716,0.0831,0.0939,0.0997,0.117,0.1205,0.1222,0.1169,0.1007,0.087,0.07,0.0553,0.0475,0.0469,0.0444,0.0317,0.0312,0.0334,0.0332,0.033,0.0329,0.0328,0,0.0562,0.0588,0.0656,0.0719,0.0745,0.0831,0.0932,0.1004,0.1132,0.1289,0.1398,0.139,0.1385,0.1136,0.0864,0.0589,0.0547,0.0399,0.0337,0.0335,0.0309,0.0307,0.0305,0.0348,0.0347,0.0346,0.0345,0,0.0622,0.0644,0.07,0.0816,0.0917,0.1046,0.1181,0.1295,0.1429,0.1546,0.1679,0.1669,0.1451,0.118,0.0803,0.0607,0.0442,0.0372,0.0426,0.0377,0.0343,0.0318,0.0317,0.0339,0.0339,0.034,0.034,0.034,0.068,0.0733,0.0813,0.0933,0.1067,0.1249,0.136,0.1512,0.1689,0.1844,0.1843,0.1803,0.1516,0.1013,0.0704,0.0385,0.0399,0.0256,0.0261,0.0266,0.0265,0.0229,0.0201,0.0201,0.0201,0.0201,0.0201,0,0.0749,0.0818,0.0932,0.1088,0.1251,0.1303,0.1531,0.1633,0.1817,0.1915,0.1956,0.1651,0.1352,0.102,0.0546,0.0249,0.0235,0.0145,0.0199,0.0208,0.0215,0.0212,0.0134,0.0133,0.0132,0.0131,0,0,0.0798,0.0904,0.0959,0.1211,0.1338,0.1535,0.166,0.1789,0.1874,0.1909,0.1862,0.1801,0.1424,0.1061,0.0682,0.0412,0.0369,0.0347,0.043,0.0548,0.0558,0.0308,0.0317,0,0,0,0,0]}],[{"header":{"parameterUnit":"m.s-1","parameterCategory":2,"la1":30.2991,"la2":30.254,"lo1":-89.0895,"lo2":-89.0444,"dy":0.0017,"dx":0.0017,"nx":28,"ny":28,"refTime":"2024-06-23T09:00:00:Z","depth":"4","parameterNumber":2,"parameterNumberName":"U-component_of_CURRENTS"},"data":[0,0,0,0,0,0,0,0,0,0,0,0,0,0,0,0,0,0,0,0,0,0,0,0,0,0,0,0,0,0,0,0,0,0,0,0,0,0,0,0,0,0,0,0,0,0,0,0,0,0,0,0,0,0,0,0,0,0,0.1684,0.1685,0,0.1699,0.1699,0.1699,0.1727,0.1729,0.173,0.1731,0.1733,0.1732,0.1731,0,0,0,0,0,0,0,0,0,0,0,0,0,0.1675,0.1674,0.1684,0.1685,0.1686,0.1699,0.1699,0.1698,0.1727,0.1729,0.173,0.1731,0.1733,0.1732,0.1731,0,0,0,0,0,0,0,0,0,0,0,0,0,0.1677,0.1674,0.1684,0.1706,0.1709,0.1699,0.1699,0.1698,0.1727,0.1729,0.173,0.1732,0.1734,0.1732,0.1731,0.1688,0,0,0.1726,0.1725,0,0,0,0,0,0,0,0,0.1677,0.1677,0.1702,0.1705,0.1708,0.1719,0.1697,0.1696,0.1726,0.1713,0.1731,0.1733,0.173,0.1728,0.1719,0.1688,0.1688,0.1726,0.1725,0.1724,0.1724,0,0,0,0,0,0,0,0.1677,0.1676,0.1684,0.1703,0.1706,0.1714,0.1715,0.1696,0.1707,0.1715,0.1718,0.1729,0.173,0.172,0.1719,0.1688,0.1726,0.1725,0.1724,0.1723,0.1758,0.176,0,0,0,0,0,0,0.1685,0.1676,0.1684,0.1685,0.1703,0.1713,0.1715,0.1708,0.1708,0.1711,0.1728,0.1731,0.1722,0.1721,0.172,0.1783,0.1724,0.1723,0.1722,0.1756,0.1759,0.1761,0,0,0,0,0,0,0.1685,0.1685,0.1683,0.1687,0.1688,0.1712,0.1704,0.1708,0.1735,0.1719,0.1721,0.1757,0.1723,0.1722,0.1744,0.1779,0.1722,0.1721,0.1754,0.1757,0.176,0.1836,0,0,0,0,0,0,0.1684,0.1684,0.1702,0.1687,0.1688,0.1686,0.1704,0.1707,0.1739,0.1744,0.1743,0.1743,0.1725,0.1746,0.1742,0.1776,0.172,0.1752,0.1756,0.1759,0.1831,0.1841,0.1849,0,0,0,0,0,0.1683,0.1691,0.1702,0.1705,0.1705,0.1686,0.1686,0.1706,0.174,0.1739,0.1764,0.1745,0.1766,0.1746,0.1741,0.1775,0.175,0.1755,0.1759,0.1827,0.1839,0.1849,0,0,0,0,0,0,0.1705,0.1695,0.1707,0.1716,0.171,0.1694,0.1716,0.1724,0.1741,0.1774,0.1757,0.1757,0.1794,0.1773,0.1752,0.1798,0.1759,0.1762,0.1813,0.1823,0.1832,0.1843,0.1719,0,0,0,0,0,0.1716,0.1716,0.1707,0.1717,0.1723,0.1727,0.1735,0.1747,0.1755,0.1766,0.1774,0.179,0.1798,0.1804,0.1805,0.1817,0.1834,0.184,0.1849,0.1857,0.1865,0.1942,0.1959,0.1774,0.1774,0.1774,0,0,0.1732,0.1727,0.1732,0.1722,0.173,0.1718,0.1735,0.1759,0.1758,0.1762,0.1794,0.1823,0.1811,0.1838,0.1852,0.1828,0.1919,0.1862,0.1869,0.1872,0.1948,0.1966,0.1982,0.1777,0.1776,0.1776,0,0,0.1741,0.1758,0.1758,0.1748,0.1765,0.1752,0.1766,0.1777,0.1799,0.1817,0.1844,0.1906,0.1889,0.1914,0.1913,0.1971,0.1969,0.1972,0.2019,0.2095,0.2111,0.2125,0.217,0.2188,0.1972,0.1972,0.1972,0,0.177,0.1746,0.1756,0.1747,0.1736,0.1767,0.175,0.1768,0.179,0.1824,0.1839,0.1919,0.1924,0.1973,0.2004,0.1993,0.2025,0.1976,0.2108,0.2123,0.2136,0.2179,0.2197,0.1976,0.1976,0.1975,0.1975,0,0.175,0.1748,0.1751,0.1733,0.1725,0.1721,0.1732,0.1768,0.181,0.184,0.1931,0.1973,0.202,0.2044,0.2036,0.214,0.2129,0.2116,0.2081,0.2159,0.2199,0.2217,0.1982,0.1981,0.1979,0.1978,0,0,0.176,0.1739,0.1743,0.1719,0.1714,0.1694,0.1722,0.1741,0.1806,0.1866,0.1932,0.2007,0.2087,0.2096,0.2133,0.2212,0.2343,0.2212,0.2214,0.2257,0.2502,0.2295,0.2294,0.2361,0.2364,0.2367,0.2491,0,0.1739,0.1694,0.1695,0.1655,0.162,0.1653,0.1669,0.1715,0.1792,0.1877,0.197,0.2069,0.2084,0.2163,0.2233,0.2333,0.2394,0.2309,0.2418,0.2421,0.2228,0.2309,0.2379,0.2504,0.2509,0.2512,0.2514,0,0.1708,0.1667,0.1624,0.1593,0.1593,0.1594,0.1647,0.1676,0.1813,0.1903,0.2031,0.2114,0.2257,0.2256,0.2449,0.24,0.245,0.2514,0.2519,0.231,0.2247,0.241,0.2546,0.2543,0.2541,0.2539,0.2537,0,0.1653,0.1616,0.1571,0.1555,0.1543,0.1565,0.1582,0.1703,0.1775,0.1963,0.208,0.2218,0.2338,0.2435,0.2548,0.2529,0.2731,0.2711,0.2561,0.2546,0.2662,0.2646,0.282,0.2819,0.2819,0.2819,0.2818,0,0.1587,0.1557,0.1556,0.1523,0.1511,0.1532,0.1608,0.1682,0.1834,0.1948,0.2114,0.2241,0.2402,0.2515,0.2577,0.2616,0.2751,0.2582,0.2571,0.2689,0.2675,0.2675,0.2657,0.2823,0.2822,0.2821,0.2821,0,0.1522,0.1529,0.1462,0.1455,0.1485,0.1471,0.159,0.1671,0.1854,0.2009,0.2084,0.2299,0.2469,0.2572,0.2739,0.2656,0.2719,0.2682,0.2797,0.2789,0.2478,0.2463,0.2549,0.2543,0.2537,0.2533,0.2529,0,0.147,0.1438,0.1416,0.1404,0.141,0.1447,0.1517,0.1668,0.1758,0.2037,0.2088,0.2314,0.2436,0.2518,0.2617,0.2679,0.2642,0.2629,0.2553,0.2473,0.2455,0.2447,0.2439,0.2521,0.252,0.2518,0.2517,0,0.1362,0.1381,0.1344,0.1311,0.1349,0.1385,0.1476,0.1534,0.1735,0.1927,0.2087,0.2185,0.2333,0.2425,0.2461,0.2503,0.2621,0.2574,0.2585,0.2514,0.244,0.2426,0.2424,0.2499,0.2502,0.2503,0.2504,0,0.1308,0.126,0.1246,0.1203,0.1252,0.1286,0.1344,0.1457,0.157,0.1858,0.1902,0.215,0.2319,0.2334,0.2386,0.2386,0.236,0.2274,0.23,0.2321,0.2179,0.2048,0.199,0,0,0,0,0,0.1224,0.1191,0.1146,0.1104,0.1147,0.1189,0.1312,0.1392,0.1601,0.1669,0.1775,0.1914,0.2029,0.214,0.2098,0.225,0.2337,0.2185,0.2242,0.2399,0.242,0.2268,0,0,0,0,0,0,0.118,0.1155,0.1115,0.1052,0.1034,0.1097,0.1177,0.1309,0.1339,0.1556,0.1637,0.1793,0.193,0.2058,0.2074,0.2095,0.2085,0.231,0.2304,0.2387,0.2406,0.2423,0.2274,0,0,0,0,0]},{"header":{"parameterUnit":"m.s-1","parameterCategory":2,"la1":30.2991,"la2":30.254,"lo1":-89.0895,"lo2":-89.0444,"dy":0.0017,"dx":0.0017,"nx":28,"ny":28,"refTime":"2024-06-23T09:00:00:Z","depth":"4","parameterNumber":3,"parameterNumberName":"V-component_of_CURRENTS"},"data":[0,0,0,0,0,0,0,0,0,0,0,0,0,0,0,0,0,0,0,0,0,0,0,0,0,0,0,0,0,0,0,0,0,0,0,0,0,0,0,0,0,0,0,0,0,0,0,0,0,0,0,0,0,0,0,0,0,0,0.0168,0.0168,0,0.0158,0.0158,0.0158,0.0157,0.0157,0.0157,0.0157,0.0153,0.0153,0.0153,0,0,0,0,0,0,0,0,0,0,0,0,0,0.0157,0.0157,0.0168,0.0168,0.0168,0.0158,0.0158,0.0158,0.0157,0.0157,0.0157,0.0157,0.0153,0.0153,0.0153,0,0,0,0,0,0,0,0,0,0,0,0,0,0.0156,0.0157,0.0168,0.0166,0.0165,0.0158,0.0158,0.0158,0.0157,0.0157,0.0157,0.0157,0.0153,0.0153,0.0153,0.015,0,0,0.0152,0.0152,0,0,0,0,0,0,0,0,0.0156,0.0157,0.0166,0.0166,0.0166,0.0158,0.0152,0.0155,0.0157,0.0161,0.0157,0.0157,0.0155,0.0154,0.0153,0.015,0.0149,0.0152,0.0152,0.0152,0.0152,0,0,0,0,0,0,0,0.0156,0.0157,0.0165,0.0166,0.0166,0.0154,0.0155,0.0152,0.0158,0.0161,0.016,0.0158,0.0155,0.0153,0.0153,0.0149,0.0152,0.0152,0.0152,0.0151,0.0157,0.0158,0,0,0,0,0,0,0.0158,0.0157,0.0165,0.0165,0.016,0.0155,0.0155,0.0161,0.0158,0.0157,0.0158,0.0158,0.0154,0.0153,0.0153,0.0176,0.0152,0.0151,0.0151,0.0157,0.0157,0.0158,0,0,0,0,0,0,0.0158,0.0159,0.0166,0.0159,0.0159,0.0155,0.0161,0.0161,0.0164,0.0156,0.0156,0.0162,0.0154,0.0153,0.0157,0.0174,0.0151,0.0151,0.0157,0.0157,0.0157,0.0204,0,0,0,0,0,0,0.0158,0.0159,0.0165,0.016,0.016,0.0169,0.0161,0.016,0.0161,0.0162,0.0159,0.0159,0.0154,0.0157,0.0157,0.0174,0.0151,0.0156,0.0157,0.0157,0.0202,0.0206,0.0209,0,0,0,0,0,0.0158,0.0166,0.0165,0.0166,0.0167,0.0169,0.0169,0.0165,0.0162,0.0168,0.0164,0.0159,0.016,0.0157,0.0157,0.0174,0.0156,0.0157,0.0157,0.02,0.0205,0.0209,0,0,0,0,0,0,0.0164,0.0167,0.0165,0.0175,0.0175,0.0169,0.0172,0.0168,0.017,0.0172,0.0162,0.0162,0.017,0.0163,0.0159,0.0175,0.0157,0.0158,0.019,0.0195,0.0198,0.0208,0.0151,0,0,0,0,0,0.0168,0.0178,0.0174,0.0184,0.0183,0.0178,0.0178,0.0178,0.0177,0.0178,0.0175,0.0172,0.0171,0.0176,0.0171,0.0182,0.0154,0.0191,0.0195,0.0198,0.0205,0.0173,0.0174,0.016,0.016,0.016,0,0,0.0174,0.0176,0.0182,0.0186,0.0185,0.0198,0.0179,0.0185,0.0205,0.0177,0.0199,0.0182,0.0174,0.0186,0.019,0.0185,0.0185,0.0199,0.0202,0.0207,0.0173,0.0175,0.0176,0.016,0.016,0.016,0,0,0.0193,0.0192,0.0208,0.0213,0.0216,0.0214,0.0218,0.0216,0.0223,0.0237,0.022,0.0212,0.0217,0.0213,0.0212,0.0231,0.02,0.0231,0.0266,0.0235,0.0236,0.0236,0.0193,0.0189,0.0239,0.0239,0.0239,0,0.0201,0.0224,0.0212,0.023,0.0247,0.0225,0.0254,0.0254,0.0257,0.0269,0.0253,0.0243,0.0232,0.0244,0.0251,0.0241,0.0212,0.0253,0.024,0.024,0.0239,0.0195,0.019,0.0242,0.0241,0.0241,0.0241,0,0.0233,0.0256,0.0265,0.0287,0.03,0.0319,0.0322,0.033,0.033,0.0331,0.0336,0.0306,0.0303,0.0294,0.0282,0.028,0.0255,0.0243,0.023,0.0244,0.0196,0.019,0.0245,0.0244,0.0243,0.0243,0,0,0.0246,0.0283,0.0289,0.0322,0.0338,0.0357,0.0384,0.0408,0.0431,0.0412,0.0427,0.0413,0.0382,0.0377,0.0347,0.0319,0.0285,0.0286,0.0283,0.0246,0.0204,0.0197,0.0189,0.027,0.0269,0.0269,0.0168,0,0.028,0.0339,0.0346,0.041,0.0445,0.0446,0.0479,0.0497,0.0496,0.0496,0.0456,0.0457,0.042,0.0413,0.0376,0.031,0.0273,0.0312,0.0194,0.0191,0.0185,0.0184,0.0267,0.0163,0.0162,0.0161,0.016,0,0.0312,0.0354,0.0425,0.0495,0.0509,0.0541,0.0593,0.0622,0.0613,0.061,0.0585,0.054,0.0498,0.0453,0.0349,0.0376,0.0297,0.0235,0.023,0.0206,0.0174,0.0148,0.0149,0.015,0.0151,0.0152,0.0152,0,0.0344,0.0412,0.048,0.0503,0.0565,0.0603,0.0639,0.066,0.0699,0.0678,0.0681,0.0612,0.0578,0.0477,0.0349,0.0351,0.0211,0.0199,0.0113,0.0111,0.0126,0.0127,0.0117,0.0117,0.0117,0.0118,0.0118,0,0.0382,0.0436,0.0503,0.0541,0.0625,0.0659,0.074,0.0752,0.0776,0.0813,0.0745,0.0731,0.0583,0.048,0.0359,0.0219,0.022,0.0118,0.0088,0.0146,0.015,0.0121,0.0123,0.0114,0.0115,0.0115,0.0116,0,0.0402,0.0445,0.0524,0.0607,0.0642,0.0704,0.0811,0.0866,0.0882,0.0914,0.0911,0.0821,0.0697,0.0533,0.0351,0.0247,0.0105,0.0049,0.0112,0.0088,0.0019,0.0025,-0.0046,-0.0047,-0.0048,-0.0048,-0.0049,0,0.0417,0.0459,0.0567,0.0625,0.0667,0.077,0.0846,0.0909,0.0961,0.0968,0.0972,0.0867,0.0783,0.0521,0.0348,0.0111,0.0076,-0.0008,0.0016,0.0026,0.0004,0.0011,0.0017,-0.005,-0.005,-0.0051,-0.0051,0,0.0437,0.0471,0.0537,0.0651,0.0743,0.0854,0.0956,0.0995,0.1055,0.1074,0.1024,0.0888,0.0735,0.0526,0.0334,0.0165,0.0045,-0.0018,-0.0017,0.0005,0.002,0.0,0.0008,-0.0054,-0.0053,-0.0053,-0.0053,0,0.0445,0.0484,0.0566,0.0674,0.0786,0.0888,0.0952,0.1017,0.107,0.1072,0.1049,0.0894,0.0806,0.0553,0.0379,0.0211,0.0174,0.0114,0.0107,0.0108,0.0184,0.0227,0.0193,0,0,0,0,0,0.045,0.0498,0.0588,0.0705,0.0819,0.0889,0.1001,0.1057,0.1105,0.1081,0.1071,0.0932,0.0684,0.0575,0.0407,0.0351,0.0131,0.0147,0.0055,-0.007,-0.0067,-0.0004,0,0,0,0,0,0,0.0454,0.0525,0.0576,0.071,0.0796,0.0926,0.0996,0.1039,0.1027,0.1043,0.0917,0.0883,0.0642,0.0781,0.0402,0.0352,0.0268,0.0043,0.0039,-0.0072,-0.0069,-0.0066,-0.0001,0,0,0,0,0]}]]